Find Starlink 35983

NORAD ID: 66902 Int'l Des: 2025-283 Owner: SPXS Country: US Constellation: starlink operational
LEOCIRCULAR

現在のビュー

3D地球を読み込み中...

About Starlink 35983

Starlink 35983 (NORAD 66902) is a starlink constellation satellite (v2 mini) launched Dec 4, 2025 by SPXS of US. It operates in LEO, CIRCULAR orbit with a mass of 575.00 kg.

Starlink 35983について

説明を読み込み中...

次回通過

Passes for default location (London). Set your location on the main map for personalized predictions.

高度履歴

Loading altitude history...

軌道要素

1 66902U 25283AA 26194.33574182 .00006988 00000-0 21778-3 0 9997
2 66902 53.1575 158.9568 0001432 82.7217 277.3948 15.34398876 35103
Epoch: Jul 13, 2026 • Age: 23 hours

現在のステータス

高度 465.9 km
遠地点 / 近地点 N/A
速度 7.63 km/s
衛星直下点 -11.39°S, 101.91°E
打ち上げ日 Dec 4, 2025
運用期間 0.6 years
タイプ internet

技術仕様

分類 Payload
質量 575.00 kg
乾燥質量 530.00 kg
総質量 575.00 kg
長さ 0.30 m
直径 4.10 m
スパン 29.00 m
形状 Box + pan
製造者 SPXS
バスタイプ Starlink V2MO
フェーズステータス In Orbit
所有者/国 SPXS/US

Most Searched